CW1707 Weather Reports


Display with metric or nautical units.
time (UTC)temp
F
wind
direction
speed
MPH
gust
MPH
rain 1hr
in
rain 24hr
in
rain mn
in
humidity
%
barometer
mb
20181211085202 30 202 2.0 8.0 0.00 0.00 0.00 75 1023.5
20181211084702 30 202 3.0 8.0 0.00 0.00 0.00 76 1023.6
20181211084202 30 202 2.0 8.0 0.00 0.00 0.00 76 1023.5
20181211083701 30 200 2.0 7.0 0.00 0.00 0.00 76 1023.5
20181211083201 30 200 1.0 6.0 0.00 0.00 0.00 76 1023.6
20181211082702 30 201 3.0 6.0 0.00 0.00 0.00 76 1023.6
20181211082201 30 201 2.0 6.0 0.00 0.00 0.00 76 1023.6
20181211081702 30 201 2.0 6.0 0.00 0.00 0.00 76 1023.7
20181211081203 30 201 1.0 6.0 0.00 0.00 0.00 76 1023.8
20181211080702 30 201 1.0 6.0 0.00 0.00 0.00 76 1023.8
20181211080202 30 202 2.0 6.0 0.00 0.00 0.00 76 1023.8
20181211075702 30 201 0.0 3.0 0.00 0.00 0.00 76 1023.8
20181211075202 30 201 2.0 6.0 0.00 0.00 0.00 76 1023.8
20181211074702 30 201 1.0 6.0 0.00 0.00 0.00 76 1023.8
20181211074202 30 201 1.0 5.0 0.00 0.00 0.00 76 1023.7
20181211073702 30 201 1.0 5.0 0.00 0.00 0.00 76 1023.7
20181211073202 30 201 0.0 5.0 0.00 0.00 0.00 75 1023.7
20181211072702 30 202 2.0 6.0 0.00 0.00 0.00 76 1023.8
20181211072201 30 202 2.0 6.0 0.00 0.00 0.00 75 1023.8
20181211071701 30 200 3.0 6.0 0.00 0.00 0.00 75 1023.9
20181211071201 31 198 1.0 6.0 0.00 0.00 0.00 75 1024.0
20181211070702 31 198 2.0 7.0 0.00 0.00 0.00 75 1024.0
20181211070201 31 198 2.0 9.0 0.00 0.00 0.00 75 1023.9
20181211065702 31 201 3.0 9.0 0.00 0.00 0.00 75 1023.9
20181211065201 31 200 2.0 9.0 0.00 0.00 0.00 76 1023.9
20181211064703 31 198 3.0 8.0 0.00 0.00 0.00 76 1024.0
20181211064202 31 198 3.0 7.0 0.00 0.00 0.00 76 1024.0
20181211063701 30 198 2.0 7.0 0.00 0.00 0.00 77 1024.0
20181211063202 30 198 1.0 7.0 0.00 0.00 0.00 77 1024.1
20181211062702 30 200 2.0 6.0 0.00 0.00 0.00 77 1024.1
20181211062202 30 201 1.0 6.0 0.00 0.00 0.00 77 1024.2
20181211061702 30 201 1.0 6.0 0.00 0.00 0.00 78 1024.2
20181211061202 30 201 1.0 5.0 0.00 0.00 0.00 78 1024.3
20181211060704 30 201 1.0 5.0 0.00 0.00 0.00 78 1024.4
20181211060201 30 201 0.0 6.0 0.00 0.00 0.00 78 1024.4
20181211055702 30 201 3.0 7.0 0.00 0.00 0.00 78 1024.5
20181211055202 30 201 2.0 7.0 0.00 0.00 0.00 78 1024.6
20181211054702 30 201 1.0 5.0 0.00 0.00 0.00 78 1024.7
20181211054202 30 201 0.0 5.0 0.00 0.00 0.00 78 1024.7
20181211053702 30 201 1.0 3.0 0.00 0.00 0.00 78 1024.7
20181211053201 30 201 1.0 3.0 0.00 0.00 0.00 77 1024.8
20181211052702 30 201 0.0 3.0 0.00 0.00 0.00 77 1024.8
20181211052202 30 201 0.0 3.0 0.00 0.00 0.00 77 1024.9
20181211051701 30 201 1.0 3.0 0.00 0.00 0.00 77 1025.0
20181211051201 31 201 0.0 2.0 0.00 0.00 0.00 76 1025.1
20181211050702 31 201 0.0 2.0 0.00 0.00 0.00 76 1025.1
20181211050201 31 201 0.0 3.0 0.00 0.00 0.00 76 1025.1
20181211045701 31 201 1.0 3.0 0.00 0.00 0.00 76 1025.1
20181211045202 31 201 0.0 3.0 0.00 0.00 0.00 76 1025.2
20181211044702 31 201 0.0 3.0 0.00 0.00 0.00 76 1025.1
20181211044202 31 201 0.0 3.0 0.00 0.00 0.00 76 1025.1
20181211043702 31 201 0.0 3.0 0.00 0.00 0.00 76 1025.0
20181211043201 31 201 0.0 3.0 0.00 0.00 0.00 76 1025.1
20181211042702 31 201 0.0 3.0 0.00 0.00 0.00 76 1025.1
20181211042201 31 201 0.0 5.0 0.00 0.00 0.00 76 1025.2
20181211041701 31 201 2.0 7.0 0.00 0.00 0.00 76 1025.2
20181211041201 31 200 1.0 7.0 0.00 0.00 0.00 76 1025.3
20181211040701 31 199 0.0 5.0 0.00 0.00 0.00 76 1025.3
20181211040201 31 199 2.0 5.0 0.00 0.00 0.00 76 1025.4
20181211035701 32 195 1.0 5.0 0.00 0.00 0.00 76 1025.5
20181211035202 32 194 0.0 5.0 0.00 0.00 0.00 76 1025.5
20181211034702 32 194 2.0 5.0 0.00 0.00 0.00 77 1025.5
20181211034201 32 194 1.0 5.0 0.00 0.00 0.00 77 1025.5
20181211033701 32 194 1.0 3.0 0.00 0.00 0.00 77 1025.6
20181211033201 32 194 0.0 3.0 0.00 0.00 0.00 76 1025.6
20181211032701 32 194 0.0 3.0 0.00 0.00 0.00 77 1025.7
20181211032202 32 194 0.0 3.0 0.00 0.00 0.00 76 1025.7
20181211031702 32 194 0.0 3.0 0.00 0.00 0.00 76 1025.7
20181211031201 32 194 0.0 3.0 0.00 0.00 0.00 76 1025.7
20181211030702 32 194 0.0 3.0 0.00 0.00 0.00 76 1025.6
20181211030202 32 194 0.0 3.0 0.00 0.00 0.00 76 1025.7
20181211025701 32 194 1.0 3.0 0.00 0.00 0.00 75 1025.7
20181211025202 32 194 1.0 3.0 0.00 0.00 0.00 75 1025.7
20181211024701 32 194 0.0 3.0 0.00 0.00 0.00 75 1025.8
20181211024202 32 194 0.0 3.0 0.00 0.00 0.00 74 1025.7
20181211023702 33 194 0.0 3.0 0.00 0.00 0.00 74 1025.6
20181211023201 33 194 0.0 3.0 0.00 0.00 0.00 74 1025.7
20181211022701 33 194 0.0 3.0 0.00 0.00 0.00 74 1025.6
20181211022202 33 194 0.0 3.0 0.00 0.00 0.00 74 1025.6
20181211021701 33 194 0.0 3.0 0.00 0.00 0.00 74 1025.7
20181211021201 33 194 0.0 3.0 0.00 0.00 0.00 74 1025.8
20181211020702 33 194 1.0 3.0 0.00 0.00 0.00 74 1025.9
20181211020202 33 194 1.0 3.0 0.00 0.00 0.00 74 1025.8
20181211015702 33 194 1.0 3.0 0.00 0.00 0.00 74 1025.7
20181211015202 33 194 1.0 3.0 0.00 0.00 0.00 74 1025.8
20181211014701 33 194 0.0 1.0 0.00 0.00 0.00 73 1025.9
20181211014202 33 194 0.0 0.0 0.00 0.00 0.00 73 1025.9
20181211013701 33 194 0.0 2.0 0.00 0.00 0.00 73 1025.9
20181211013202 33 194 0.0 2.0 0.00 0.00 0.00 72 1025.9
20181211012701 33 194 0.0 0.0 0.00 0.00 0.00 72 1026.0
20181211012202 34 194 0.0 2.0 0.00 0.00 0.00 72 1026.0
20181211011701 34 194 0.0 2.0 0.00 0.00 0.00 71 1026.0
20181211011203 34 194 0.0 1.0 0.00 0.00 0.00 71 1026.1
20181211010702 34 194 0.0 1.0 0.00 0.00 0.00 71 1026.2
20181211010201 34 194 0.0 0.0 0.00 0.00 0.00 70 1026.2
20181211005702 35 194 0.0 1.0 0.00 0.00 0.00 70 1026.2
20181211005202 35 194 0.0 2.0 0.00 0.00 0.00 70 1026.3
20181211004701 35 194 0.0 2.0 0.00 0.00 0.00 70 1026.3
20181211004202 35 194 0.0 0.0 0.00 0.00 0.00 70 1026.3
20181211003702 35 194 0.0 0.0 0.00 0.00 0.00 70 1026.3
20181211003202 35 194 0.0 0.0 0.00 0.00 0.00 70 1026.3
20181211002701 35 194 0.0 0.0 0.00 0.00 0.00 69 1026.2
20181211002201 35 194 0.0 0.0 0.00 0.00 0.00 69 1026.2
20181211001702 35 194 0.0 0.0 0.00 0.00 0.00 68 1026.2
20181211001202 35 194 0.0 2.0 0.00 0.00 0.00 68 1026.3
20181211000702 35 194 0.0 2.0 0.00 0.00 0.00 69 1026.3
20181211000202 35 194 0.0 2.0 0.00 0.00 0.00 68 1026.1
20181210235702 36 194 0.0 2.0 0.00 0.00 0.00 68 1026.1
20181210235202 36 194 0.0 0.0 0.00 0.00 0.00 67 1026.1
20181210234704 36 194 0.0 0.0 0.00 0.00 0.00 66 1026.2
20181210234202 36 194 0.0 0.0 0.00 0.00 0.00 66 1026.2
20181210233702 37 194 0.0 0.0 0.00 0.00 0.00 66 1026.1
20181210233202 37 194 0.0 1.0 0.00 0.00 0.00 65 1026.1
20181210232702 37 194 0.0 1.0 0.00 0.00 0.00 65 1026.0
20181210232202 37 194 0.0 1.0 0.00 0.00 0.00 64 1025.9
20181210231702 38 194 0.0 3.0 0.00 0.00 0.00 64 1026.0
20181210231202 38 194 0.0 3.0 0.00 0.00 0.00 63 1026.1
20181210230702 38 194 1.0 3.0 0.00 0.00 0.00 63 1026.2
20181210230202 39 194 0.0 1.0 0.00 0.00 0.00 62 1026.3
20181210225701 39 194 0.0 1.0 0.00 0.00 0.00 61 1026.4
20181210225202 39 194 0.0 5.0 0.00 0.00 0.00 61 1026.4
20181210224702 40 194 1.0 5.0 0.00 0.00 0.00 60 1026.5
20181210224201 40 194 1.0 5.0 0.00 0.00 0.00 59 1026.6
20181210223701 41 194 1.0 5.0 0.00 0.00 0.00 59 1026.5
20181210223202 41 194 1.0 6.0 0.00 0.00 0.00 59 1026.5
20181210222702 41 193 1.0 6.0 0.00 0.00 0.00 58 1026.5
20181210222202 41 194 0.0 5.0 0.00 0.00 0.00 57 1026.6
20181210221702 41 194 1.0 5.0 0.00 0.00 0.00 57 1026.7
20181210221203 42 194 1.0 6.0 0.00 0.00 0.00 56 1026.6
20181210220702 42 194 1.0 6.0 0.00 0.00 0.00 55 1026.6
20181210220202 42 193 2.0 7.0 0.00 0.00 0.00 54 1026.5
20181210215702 43 186 2.0 7.0 0.00 0.00 0.00 54 1026.4
20181210215202 43 226 0.0 6.0 0.00 0.00 0.00 54 1026.4
20181210214702 43 226 1.0 8.0 0.00 0.00 0.00 54 1026.5
20181210214203 43 227 2.0 8.0 0.00 0.00 0.00 53 1026.5
20181210213702 43 225 2.0 7.0 0.00 0.00 0.00 52 1026.6
20181210213202 43 219 1.0 7.0 0.00 0.00 0.00 53 1026.7
20181210212702 43 202 0.0 7.0 0.00 0.00 0.00 54 1026.6
20181210212202 43 202 4.0 7.0 0.00 0.00 0.00 53 1026.6
20181210211702 43 223 2.0 8.0 0.00 0.00 0.00 53 1026.6
20181210211202 43 228 3.0 8.0 0.00 0.00 0.00 52 1026.6
20181210210702 43 249 1.0 8.0 0.00 0.00 0.00 53 1026.7
20181210210202 43 220 2.0 8.0 0.00 0.00 0.00 54 1026.6
20181210205702 43 221 5.0 8.0 0.00 0.00 0.00 54 1026.6
20181210205201 43 213 3.0 8.0 0.00 0.00 0.00 54 1026.6
20181210204702 43 217 2.0 9.0 0.00 0.00 0.00 54 1026.7
20181210204203 44 226 6.0 9.0 0.00 0.00 0.00 53 1026.7
20181210203703 44 222 1.0 9.0 0.00 0.00 0.00 55 1026.7
20181210203202 44 217 3.0 9.0 0.00 0.00 0.00 55 1026.6
20181210202703 44 217 3.0 8.0 0.00 0.00 0.00 54 1026.6
20181210202202 44 224 1.0 8.0 0.00 0.00 0.00 54 1026.8
20181210201702 44 230 2.0 12.0 0.00 0.00 0.00 55 1026.7
20181210201202 43 237 5.0 12.0 0.00 0.00 0.00 55 1026.6
20181210200702 43 216 4.0 12.0 0.00 0.00 0.00 55 1026.4
20181210200201 43 201 4.0 12.0 0.00 0.00 0.00 57 1026.5
20181210195701 43 189 6.0 12.0 0.00 0.00 0.00 57 1026.2
20181210195202 43 200 7.0 12.0 0.00 0.00 0.00 56 1026.2
20181210194702 43 198 7.0 12.0 0.00 0.00 0.00 56 1026.2
20181210194202 43 201 3.0 12.0 0.00 0.00 0.00 59 1026.4
20181210193701 43 216 6.0 13.0 0.00 0.00 0.00 58 1026.4
20181210193202 43 189 5.0 13.0 0.00 0.00 0.00 59 1026.2
20181210192702 42 186 5.0 13.0 0.00 0.00 0.00 60 1026.4
20181210192202 42 190 5.0 13.0 0.00 0.00 0.00 61 1026.5
20181210191703 42 189 6.0 12.0 0.00 0.00 0.00 61 1026.6
20181210191202 42 202 5.0 12.0 0.00 0.00 0.00 63 1026.7
20181210190702 41 204 5.0 12.0 0.00 0.00 0.00 63 1026.9
20181210190201 41 204 7.0 12.0 0.00 0.00 0.00 63 1027.0
20181210185702 41 207 5.0 12.0 0.00 0.00 0.00 64 1027.2
20181210185202 40 202 7.0 13.0 0.00 0.00 0.00 63 1027.3
20181210184702 41 198 6.0 13.0 0.00 0.00 0.00 64 1027.5
20181210184201 40 228 4.0 10.0 0.00 0.00 0.00 65 1027.5
20181210183702 40 209 2.0 9.0 0.00 0.00 0.00 66 1027.6
20181210183202 39 215 5.0 12.0 0.00 0.00 0.00 66 1027.6
20181210182702 39 181 5.0 12.0 0.00 0.00 0.00 67 1027.5
20181210182202 39 172 6.0 12.0 0.00 0.00 0.00 67 1027.6
20181210181702 39 174 5.0 9.0 0.00 0.00 0.00 68 1027.8
20181210181201 38 199 1.0 6.0 0.00 0.00 0.00 71 1028.1
20181210180702 37 202 1.0 6.0 0.00 0.00 0.00 76 1028.3
20181210180202 37 205 1.0 7.0 0.00 0.00 0.00 71 1028.6
20181210175701 37 205 3.0 7.0 0.00 0.00 0.00 72 1028.8
20181210175201 36 202 1.0 8.0 0.00 0.00 0.00 73 1028.9
20181210174701 36 203 3.0 8.0 0.00 0.00 0.00 72 1029.0
20181210174201 36 204 2.0 7.0 0.00 0.00 0.00 74 1029.1
20181210173702 35 204 1.0 7.0 0.00 0.00 0.00 75 1029.1
20181210173202 35 207 1.0 6.0 0.00 0.00 0.00 76 1029.1
20181210172702 35 207 2.0 6.0 0.00 0.00 0.00 76 1029.3
20181210172201 34 227 1.0 8.0 0.00 0.00 0.00 76 1029.4
20181210171702 33 227 3.0 8.0 0.00 0.00 0.00 78 1029.7
20181210171201 33 186 1.0 5.0 0.00 0.00 0.00 78 1029.8
20181210170702 33 184 0.0 3.0 0.00 0.00 0.00 79 1029.8
20181210170201 32 184 0.0 5.0 0.00 0.00 0.00 79 1029.9
20181210165702 32 184 1.0 5.0 0.00 0.00 0.00 79 1029.9
20181210165202 32 184 1.0 6.0 0.00 0.00 0.00 79 1030.0
20181210164701 32 183 2.0 6.0 0.00 0.00 0.00 81 1030.0
20181210164202 31 175 1.0 3.0 0.00 0.00 0.00 82 1029.9
20181210163703 31 175 1.0 3.0 0.00 0.00 0.00 83 1029.9
20181210163201 30 175 1.0 3.0 0.00 0.00 0.00 83 1030.0
20181210162702 30 175 0.0 3.0 0.00 0.00 0.00 84 1030.2
20181210162201 30 175 1.0 3.0 0.00 0.00 0.00 85 1030.1
20181210161702 29 175 0.0 6.0 0.00 0.00 0.00 85 1030.0
20181210161203 28 175 0.0 6.0 0.00 0.00 0.00 86 1030.0
20181210160702 28 175 1.0 6.0 0.00 0.00 0.00 85 1030.0
20181210160202 28 175 1.0 6.0 0.00 0.00 0.00 87 1030.2
20181210155702 27 175 2.0 7.0 0.00 0.00 0.00 89 1030.3
20181210155202 27 175 2.0 7.0 0.00 0.00 0.00 90 1030.3
20181210154702 27 139 1.0 7.0 0.00 0.00 0.00 91 1030.2
20181210154202 26 138 2.0 7.0 0.00 0.00 0.00 92 1030.2
20181210153702 26 131 0.0 3.0 0.00 0.00 0.00 92 1030.3
20181210153202 25 131 1.0 3.0 0.00 0.00 0.00 93 1030.3
20181210152702 25 131 0.0 3.0 0.00 0.00 0.00 93 1030.1
20181210152202 25 129 2.0 3.0 0.00 0.00 0.00 93 1030.1
20181210151702 24 120 0.0 2.0 0.00 0.00 0.00 94 1030.1
20181210151202 24 120 0.0 3.0 0.00 0.00 0.00 94 1030.2
20181210150702 24 120 1.0 3.0 0.00 0.00 0.00 93 1030.1
20181210150202 23 120 1.0 3.0 0.00 0.00 0.00 93 1030.0
20181210145702 23 98 1.0 3.0 0.00 0.00 0.00 93 1029.8
20181210145202 23 98 1.0 3.0 0.00 0.00 0.00 93 1029.6
20181210144701 22 76 2.0 3.0 0.00 0.00 0.00 94 1029.6
20181210144202 22 67 2.0 3.0 0.00 0.00 0.00 94 1029.7
20181210143702 21 65 0.0 1.0 0.00 0.00 0.00 94 1029.8
20181210143202 21 65 0.0 2.0 0.00 0.00 0.00 94 1029.7
20181210142702 20 65 0.0 2.0 0.00 0.00 0.00 93 1029.7
20181210142202 19 65 0.0 0.0 0.00 0.00 0.00 93 1029.8
20181210141702 18 65 0.0 0.0 0.00 0.00 0.00 93 1029.8
20181210141202 18 65 0.0 0.0 0.00 0.00 0.00 92 1029.8
20181210140702 17 65 0.0 0.0 0.00 0.00 0.00 92 1029.7
20181210140202 17 65 0.0 0.0 0.00 0.00 0.00 92 1029.7
20181210135702 17 65 0.0 0.0 0.00 0.00 0.00 92 1029.6
20181210135201 17 65 0.0 0.0 0.00 0.00 0.00 92 1029.7
20181210134702 18 65 0.0 0.0 0.00 0.00 0.00 92 1029.7
20181210134202 18 65 0.0 1.0 0.00 0.00 0.00 92 1029.6
20181210133702 18 65 0.0 1.0 0.00 0.00 0.00 92 1029.5
20181210133202 18 65 0.0 1.0 0.00 0.00 0.00 92 1029.5
20181210132701 17 65 0.0 0.0 0.00 0.00 0.00 92 1029.5
20181210132201 17 65 0.0 0.0 0.00 0.00 0.00 91 1029.5
20181210131702 18 65 0.0 0.0 0.00 0.00 0.00 92 1029.5
20181210131201 18 65 0.0 0.0 0.00 0.00 0.00 92 1029.5
20181210130702 18 65 0.0 0.0 0.00 0.00 0.00 92 1029.4
20181210130201 17 65 0.0 0.0 0.00 0.00 0.00 91 1029.3
20181210125702 17 65 0.0 0.0 0.00 0.00 0.00 91 1029.4
20181210125202 18 65 0.0 0.0 0.00 0.00 0.00 91 1029.4
20181210124701 18 65 0.0 0.0 0.00 0.00 0.00 91 1029.4
20181210124201 18 65 0.0 0.0 0.00 0.00 0.00 91 1029.3
20181210123702 18 65 0.0 0.0 0.00 0.00 0.00 91 1029.3
20181210123202 19 65 0.0 0.0 0.00 0.00 0.00 91 1029.3
20181210122702 19 65 0.0 0.0 0.00 0.00 0.00 92 1029.3
20181210122202 19 65 0.0 1.0 0.00 0.00 0.00 92 1029.2
20181210121702 19 65 0.0 1.0 0.00 0.00 0.00 92 1029.1
20181210121202 18 65 0.0 1.0 0.00 0.00 0.00 91 1029.0
20181210120701 19 65 0.0 1.0 0.00 0.00 0.00 91 1029.0
20181210120202 19 65 0.0 1.0 0.00 0.00 0.00 91 1028.9
20181210115702 19 65 0.0 0.0 0.00 0.00 0.00 91 1029.0
20181210115202 19 65 0.0 0.0 0.00 0.00 0.00 91 1029.0
20181210114702 19 65 0.0 0.0 0.00 0.00 0.00 91 1029.0
20181210114202 20 65 0.0 0.0 0.00 0.00 0.00 91 1029.0
20181210113701 20 65 0.0 0.0 0.00 0.00 0.00 91 1028.9
20181210113202 20 65 0.0 0.0 0.00 0.00 0.00 91 1028.9
20181210112701 20 65 0.0 0.0 0.00 0.00 0.00 91 1028.9
20181210112202 20 65 0.0 0.0 0.00 0.00 0.00 92 1028.9
20181210111702 20 65 0.0 0.0 0.00 0.00 0.00 92 1028.9
20181210111202 20 65 0.0 0.0 0.00 0.00 0.00 91 1029.0
20181210110701 20 65 0.0 0.0 0.00 0.00 0.00 91 1029.0
20181210110202 20 65 0.0 0.0 0.00 0.00 0.00 91 1029.0
20181210105702 19 65 0.0 0.0 0.00 0.00 0.00 91 1028.9
20181210105202 19 65 0.0 0.0 0.00 0.00 0.00 100 1028.9
20181210104702 19 65 0.0 0.0 0.00 0.00 0.00 91 1029.0
20181210104202 20 65 0.0 0.0 0.00 0.00 0.00 91 1029.0
20181210103702 20 65 0.0 0.0 0.00 0.00 0.00 91 1029.1
20181210103204 20 65 0.0 0.0 0.00 0.00 0.00 91 1029.1
20181210102701 20 65 0.0 0.0 0.00 0.00 0.00 91 1029.1
20181210102202 19 65 0.0 0.0 0.00 0.00 0.00 91 1029.0
20181210101702 19 65 0.0 0.0 0.00 0.00 0.00 90 1029.0
20181210101202 19 65 0.0 0.0 0.00 0.00 0.00 90 1029.1
20181210100702 19 65 0.0 0.0 0.00 0.00 0.00 90 1029.2
20181210100201 19 65 0.0 0.0 0.00 0.00 0.00 90 1029.2
20181210095702 19 65 0.0 0.0 0.00 0.00 0.00 90 1029.2
20181210095202 19 65 0.0 0.0 0.00 0.00 0.00 90 1029.2
20181210094702 19 65 0.0 0.0 0.00 0.00 0.00 90 1029.3
20181210094202 19 65 0.0 0.0 0.00 0.00 0.00 90 1029.3
20181210093702 19 65 0.0 0.0 0.00 0.00 0.00 90 1029.4
20181210093202 19 65 0.0 0.0 0.00 0.00 0.00 89 1029.5
20181210092701 19 65 0.0 0.0 0.00 0.00 0.00 89 1029.5
20181210092202 19 65 0.0 0.0 0.00 0.00 0.00 89 1029.5
20181210091702 19 65 0.0 0.0 0.00 0.00 0.00 89 1029.6
20181210091202 19 65 0.0 0.0 0.00 0.00 0.00 89 1029.6
20181210090702 20 65 0.0 0.0 0.00 0.00 0.00 89 1029.6
20181210090202 20 65 0.0 0.0 0.00 0.00 0.00 89 1029.6
20181210085702 20 65 0.0 0.0 0.00 0.00 0.00 89 1029.6